Theta_e
308 309 310 312 313 313 311 307 307 307 306 306 305 306 306 306 307 307 307 307 307 307 307 307 308 308 308 308 308 310 309 311 314 320 323 318 313 313 312 312 313 314 316 315 315 315 314 315 314 314 316 317 320 322 322 322 329 341 339 328 322 318 317 317 319 324 323 319 319 317 318 319 317 318 317 315 316 315 314 313 312 311 311 311 312 313 314 316
309 307 306 309 312 312 309 305 305 306 306 306 306 306 306 306 306 306 307 307 306 307 307 307 308 308 308 308 310 311 310 314 319 321 320 316 313 312 313 313 313 315 315 315 314 314 314 315 314 314 317 318 319 320 322 324 326 330 333 327 320 318 317 317 319 320 320 319 318 318 319 319 318 318 316 315 315 316 318 314 311 312 312 312 312 313 314 315
310 309 309 310 312 310 309 307 305 305 306 306 306 306 306 306 306 307 307 307 307 307 307 307 307 308 308 309 312 312 312 317 323 322 316 314 313 313 314 314 314 314 315 315 315 314 314 315 314 314 318 318 318 320 323 325 323 325 333 328 317 318 317 316 319 318 318 319 319 318 317 317 317 316 316 316 316 318 320 316 314 314 312 312 312 312 314 314
309 310 311 311 311 311 311 311 308 306 305 306 306 306 306 307 307 307 307 307 307 307 307 308 307 309 309 311 312 312 315 321 323 319 314 313 314 313 314 314 314 315 315 315 315 315 315 315 314 315 318 318 319 321 321 321 322 324 329 324 316 318 318 317 319 319 318 318 319 318 316 316 315 316 316 316 317 318 317 315 316 315 313 313 312 311 312 313
309 310 311 310 310 310 310 311 310 308 307 306 306 307 306 306 307 307 307 307 308 308 308 308 309 310 310 312 313 313 318 321 319 316 314 313 313 313 314 314 314 315 315 316 316 316 315 314 315 318 318 317 320 321 318 317 321 322 320 320 318 319 318 317 319 319 318 318 319 317 316 316 315 316 317 317 318 320 317 314 314 314 312 313 312 311 311 311
308 309 311 310 309 309 309 310 311 310 309 307 306 307 306 306 307 307 308 308 308 309 309 309 310 310 311 312 313 315 318 318 316 315 313 313 313 313 314 314 314 314 316 316 316 316 316 315 315 319 318 316 320 321 317 317 321 323 319 318 320 319 318 317 319 319 317 318 318 317 316 316 317 316 318 321 319 318 315 312 312 311 310 311 310 310 310 310
308 308 309 309 309 308 309 310 310 310 309 308 307 306 307 306 307 307 309 309 309 310 310 311 310 311 312 312 316 321 321 318 317 315 313 314 313 313 314 313 313 315 316 316 316 316 317 317 315 317 320 318 318 319 318 318 321 324 320 318 320 318 318 319 320 318 317 318 316 316 316 316 318 315 319 323 315 312 311 309 309 309 309 309 310 309 309 309
311 310 309 309 308 308 309 310 311 311 311 309 307 306 307 306 306 307 308 310 310 310 311 311 312 313 312 312 320 325 323 321 317 314 314 314 314 314 313 313 314 315 316 316 316 316 316 318 316 316 320 318 317 317 318 320 321 321 319 318 320 318 318 321 321 318 317 318 316 316 316 317 318 314 319 320 311 311 310 308 308 308 309 309 310 309 307 308
309 309 309 309 309 309 309 310 311 311 312 311 308 306 308 307 306 307 308 310 310 310 311 312 313 313 313 315 319 319 320 320 316 314 314 314 314 313 313 315 314 315 316 316 316 315 316 317 317 317 318 317 318 318 318 322 320 318 318 318 319 318 318 320 320 319 318 318 316 316 317 319 318 314 316 315 310 311 310 309 310 309 310 310 311 308 306 307
308 308 308 308 309 310 310 311 311 312 312 312 309 307 307 307 307 306 308 310 311 311 312 313 313 313 314 318 321 317 317 319 314 314 314 314 315 313 315 316 315 316 316 316 317 316 316 316 316 316 317 318 318 317 317 321 318 317 319 318 319 319 318 318 318 319 318 317 317 316 318 318 316 315 316 313 309 311 310 311 311 311 311 311 310 308 306 307
311 311 309 307 308 309 310 311 312 313 313 311 309 307 307 307 308 307 308 310 311 312 313 314 313 314 314 317 322 319 318 318 316 316 316 315 315 314 316 315 315 316 316 317 316 315 316 315 314 316 318 317 316 317 317 317 316 317 318 318 320 320 318 318 318 319 317 316 317 317 317 316 314 315 318 314 309 310 311 311 311 311 312 311 311 309 306 306
313 313 313 311 309 309 310 311 312 313 313 310 308 309 307 307 308 308 309 310 312 313 314 314 313 315 315 317 321 320 319 320 319 318 317 316 316 315 316 315 316 317 317 318 316 315 315 315 315 317 318 317 318 318 316 315 316 317 317 318 322 321 319 319 317 318 317 316 317 316 316 318 315 315 317 312 309 310 310 311 311 311 311 311 311 309 306 305
313 313 314 313 311 310 310 312 313 314 313 309 309 310 308 308 308 309 310 312 313 313 314 314 314 314 316 318 319 318 320 321 319 319 317 316 316 316 316 315 316 316 317 317 317 315 313 315 316 317 317 318 319 316 315 316 316 318 316 317 322 322 324 322 316 318 318 316 317 316 318 325 322 315 313 310 309 311 311 311 311 311 311 311 310 310 308 305
313 313 314 313 312 311 310 312 313 315 313 309 310 311 309 309 309 310 312 313 314 314 314 314 314 315 317 318 317 317 319 320 319 319 318 318 317 317 316 315 315 316 316 316 316 314 313 315 316 317 316 317 317 315 317 317 316 320 318 320 323 321 329 327 315 318 318 314 316 316 318 326 324 315 310 310 310 311 311 311 311 311 310 310 310 310 309 305
313 313 314 313 312 311 311 311 313 314 312 311 312 311 310 310 310 312 312 314 315 314 315 314 314 317 320 320 315 315 317 318 318 318 318 318 317 316 315 315 315 314 315 315 315 314 314 315 316 319 316 315 317 317 322 322 320 318 319 329 328 319 331 329 314 317 318 314 314 316 319 321 320 315 310 310 311 311 312 311 311 311 310 310 310 309 309 305
315 314 314 313 312 311 311 310 311 312 312 312 312 311 311 312 313 314 314 314 314 315 317 317 315 316 319 320 316 316 316 316 317 317 317 317 317 316 315 315 315 314 315 314 314 314 315 316 318 318 317 317 320 323 328 329 328 324 319 329 331 321 326 325 315 317 318 315 313 315 320 321 319 315 310 310 311 311 311 311 311 310 310 310 309 307 307 306
315 314 314 313 312 312 311 311 311 311 312 313 312 312 313 314 314 314 314 314 314 316 319 318 316 314 315 316 315 319 319 316 317 317 317 318 317 316 315 315 314 314 315 314 314 315 315 317 316 317 318 319 321 326 329 327 329 330 321 322 326 323 322 321 320 318 316 317 314 314 317 319 319 314 311 311 311 312 312 311 311 310 309 309 309 307 306 306
316 315 315 314 313 313 312 311 310 311 313 313 313 315 315 315 315 315 315 314 315 314 315 317 315 312 313 313 314 319 319 317 317 317 317 318 316 315 315 315 314 314 315 316 316 316 316 319 320 321 320 319 319 323 327 326 329 331 326 323 324 323 322 322 322 319 316 316 316 316 315 315 317 315 312 311 310 311 312 311 310 310 309 309 308 307 306 306
316 316 315 314 314 314 312 311 311 312 313 314 316 317 316 315 315 318 317 316 318 314 312 318 316 311 314 316 317 319 318 317 318 317 317 317 315 315 316 314 315 316 317 319 318 317 319 323 324 323 321 321 319 320 324 327 329 331 330 329 327 325 324 323 322 319 316 316 317 317 316 315 315 316 315 311 311 311 311 312 311 310 309 309 309 308 307 306
316 316 316 315 315 314 313 311 312 312 312 314 317 318 320 321 319 319 320 320 322 318 315 318 316 314 316 318 318 318 318 317 317 317 316 316 315 315 315 315 316 317 319 323 322 318 320 324 325 324 323 322 319 318 319 321 324 324 324 325 326 324 324 323 321 319 316 317 320 318 316 317 316 318 317 311 311 311 311 312 312 310 309 309 309 309 307 305
317 316 316 315 315 315 313 311 311 312 313 314 316 319 325 325 318 318 322 323 320 317 318 318 315 315 316 317 317 316 317 317 316 317 315 315 315 315 316 317 318 319 321 324 323 319 318 323 325 324 321 319 319 319 318 319 320 320 321 321 323 324 324 323 320 318 317 318 323 322 318 319 319 319 318 313 311 312 311 312 312 310 310 309 309 309 307 305
317 317 316 316 316 315 314 312 312 313 314 314 315 317 320 319 316 316 318 322 321 317 318 318 316 316 316 316 316 315 318 319 318 317 315 314 315 316 318 317 319 322 321 321 323 321 320 322 321 319 318 318 320 320 319 319 319 320 322 320 323 326 324 323 321 318 317 319 326 327 321 320 320 319 319 315 312 312 310 310 312 311 310 309 309 308 307 305
318 317 317 317 316 315 314 313 313 314 314 314 314 316 318 317 317 316 315 320 324 321 320 320 319 318 317 316 316 316 318 320 322 319 315 313 315 318 318 317 319 321 320 320 323 324 324 327 321 316 318 319 320 321 320 320 320 323 323 320 324 327 323 324 324 319 317 319 322 324 321 319 318 318 320 317 313 314 312 312 313 312 310 308 308 308 306 304
318 318 317 317 316 316 314 313 313 315 315 315 314 316 318 317 316 318 320 321 322 322 320 319 319 318 318 316 315 317 318 319 322 320 315 314 315 317 318 318 319 319 319 319 321 322 323 327 323 318 319 320 321 321 321 321 322 326 327 324 326 327 323 323 323 320 322 324 320 319 322 325 323 320 320 318 314 315 315 314 316 314 311 310 309 307 305 304
319 318 318 317 316 315 313 313 314 314 315 315 314 315 318 317 315 317 321 322 323 324 320 317 318 319 318 316 315 317 318 317 320 319 315 314 315 317 317 316 318 319 319 318 319 320 319 320 322 322 321 320 321 320 323 325 323 325 329 327 324 325 324 323 324 323 328 332 325 320 328 337 335 327 323 320 315 315 315 314 316 314 311 311 309 307 305 305
320 319 318 317 317 315 313 314 315 315 316 315 314 314 317 317 317 316 317 320 323 322 320 318 319 320 318 317 315 316 318 317 318 317 315 314 315 317 318 317 317 319 318 318 318 319 320 318 320 324 324 323 322 321 324 326 322 324 328 328 325 323 323 324 324 324 330 335 325 320 329 335 331 327 326 324 319 317 315 313 314 312 311 310 308 306 305 305
320 319 318 318 316 314 314 315 315 315 316 316 314 314 316 317 317 316 316 321 323 320 321 319 317 318 318 316 314 316 319 318 317 316 314 315 315 316 318 318 317 318 317 319 321 321 321 320 321 324 325 326 324 322 324 324 324 328 328 329 328 322 323 325 324 325 332 333 325 321 327 328 326 325 324 324 323 319 315 313 312 310 309 308 307 306 305 304
321 320 319 318 316 314 314 316 316 315 316 316 314 314 317 317 317 317 318 324 326 320 321 320 315 315 317 315 315 317 317 318 320 317 313 314 315 315 318 318 318 318 318 320 322 322 321 323 324 324 324 325 323 324 326 323 324 328 326 330 331 327 329 331 328 328 329 329 326 323 325 327 328 328 323 319 321 322 317 313 311 309 307 307 306 306 305 304
321 321 319 318 317 314 315 317 316 316 316 316 316 316 316 316 317 321 323 326 326 321 319 318 316 316 316 315 316 317 316 317 319 317 314 313 314 315 316 317 317 318 318 318 322 324 323 321 322 323 323 324 325 328 329 324 322 324 324 329 332 331 332 332 331 330 328 329 328 326 325 327 330 330 323 318 320 323 320 315 312 309 307 306 305 305 304 304
321 321 320 318 317 315 314 316 317 317 316 316 317 316 316 318 320 324 325 326 328 325 317 315 318 318 317 317 317 318 319 317 316 315 315 315 315 315 315 316 317 320 321 318 321 323 320 315 317 322 321 322 325 323 323 326 322 324 328 331 332 332 332 333 331 328 328 329 328 327 325 326 330 328 323 321 322 323 319 317 316 311 308 306 305 304 304 302
321 321 320 318 317 315 314 315 316 317 316 316 317 315 317 321 322 324 325 324 326 326 317 316 319 318 317 318 319 319 320 318 315 316 318 316 317 317 317 317 318 322 323 321 323 322 319 318 319 320 319 321 326 321 320 324 322 324 332 332 330 331 332 331 325 324 328 329 328 327 324 323 328 327 322 321 322 321 320 320 319 313 308 306 305 304 303 302
321 321 321 319 317 316 314 315 316 317 317 316 316 316 319 322 322 325 326 323 326 327 321 320 320 318 318 319 320 319 319 319 316 317 319 318 318 317 317 319 319 322 323 321 323 323 321 323 322 318 316 321 327 324 323 324 322 324 329 329 328 329 330 330 325 324 327 327 323 322 322 323 325 325 323 321 321 322 322 321 319 314 308 305 305 303 303 302
321 320 320 320 318 316 315 316 317 317 317 315 316 318 320 322 324 325 326 326 328 326 322 322 320 318 319 320 321 319 318 320 317 317 318 317 319 318 317 319 318 322 327 322 320 323 325 324 321 319 318 321 324 323 322 323 322 322 324 327 329 328 330 332 329 327 328 327 322 318 321 324 325 325 323 321 320 320 319 319 317 312 308 305 304 303 302 302
321 320 320 319 318 316 315 315 317 317 315 315 317 319 320 323 325 325 325 327 325 322 321 323 321 319 319 320 321 319 319 320 316 317 319 317 320 320 319 320 316 321 330 324 320 323 325 325 323 320 320 322 321 320 323 324 321 320 322 325 327 329 334 335 331 330 330 329 322 317 322 328 329 326 320 317 316 315 316 316 313 310 307 305 304 303 302 301
320 320 319 318 317 317 315 316 317 316 314 315 318 320 321 323 324 324 326 325 322 322 321 321 321 321 321 321 321 319 321 323 316 317 320 319 320 320 319 319 315 319 326 324 322 322 322 326 326 320 319 321 320 319 323 324 322 321 323 325 326 330 333 330 328 326 326 326 322 319 325 328 326 321 315 313 312 312 314 312 310 309 307 305 304 302 302 301
319 318 318 317 316 316 316 316 317 315 314 316 318 320 321 323 324 325 324 322 321 322 321 321 322 323 322 323 322 320 322 326 320 318 321 318 318 319 318 318 316 317 320 320 325 326 323 327 324 317 318 319 319 321 321 323 324 322 322 324 325 329 329 327 327 322 321 326 325 322 325 325 322 320 317 314 312 311 311 310 309 308 306 304 304 302 301 300
318 318 317 317 316 316 316 317 316 314 315 317 319 319 320 322 326 325 321 321 321 321 322 323 323 323 323 323 324 322 322 325 320 319 322 319 319 320 318 319 318 316 317 318 324 328 326 326 321 317 320 318 316 321 321 321 322 322 324 324 322 326 328 329 331 326 324 328 327 324 324 324 323 322 318 314 314 314 312 311 309 306 305 304 303 302 301 300
318 317 317 317 317 316 316 317 316 314 315 317 318 319 319 320 323 323 320 320 321 320 323 324 323 323 324 323 324 323 321 323 320 319 323 320 321 321 317 319 319 316 316 316 322 327 326 326 322 317 319 317 315 320 321 319 319 323 326 323 324 329 328 327 329 329 329 329 328 327 325 322 322 323 322 317 316 317 314 311 308 307 305 304 303 302 301 300
318 318 318 318 317 316 316 316 315 315 316 317 317 318 320 319 320 322 322 320 320 321 322 323 322 323 323 323 324 323 321 323 320 319 322 321 322 322 317 318 320 317 315 315 319 324 325 327 325 316 317 317 315 319 323 321 318 320 321 318 322 327 326 327 327 328 330 329 329 330 326 324 322 322 324 321 316 316 314 310 308 306 305 303 303 302 301 300
318 319 320 318 317 317 316 316 316 316 317 317 316 317 320 319 319 322 323 321 322 323 321 323 323 323 324 324 324 323 322 322 320 319 322 321 321 322 319 318 321 319 316 315 318 322 322 325 325 319 316 318 319 320 323 322 319 319 320 319 321 321 322 325 325 326 330 330 330 329 326 327 325 320 320 319 316 314 312 311 309 306 305 304 303 302 301 300
317 319 320 318 317 317 316 316 318 319 318 316 315 316 317 318 319 320 320 320 323 323 322 323 324 322 324 324 323 323 322 322 321 320 321 321 321 324 322 318 320 320 317 317 320 321 323 326 327 322 318 319 323 321 318 319 320 319 319 320 320 320 322 324 324 325 326 326 330 329 326 326 322 318 320 319 316 314 311 311 310 307 305 304 303 302 301 300
317 319 319 318 317 317 316 318 319 319 319 316 315 315 316 317 319 319 319 319 320 321 321 322 323 323 323 324 324 325 324 322 322 321 321 321 320 324 324 320 319 320 318 319 319 321 326 329 327 325 321 319 320 320 318 319 319 318 319 321 320 319 321 324 325 326 324 323 326 326 326 325 316 314 320 319 317 316 311 310 310 308 306 304 303 302 301 300
316 317 318 318 317 316 317 320 320 319 320 317 315 315 316 317 319 319 319 319 318 319 320 322 323 323 323 323 324 325 324 323 323 322 322 322 320 323 327 325 321 320 319 320 320 321 325 326 325 326 325 319 316 317 319 318 317 318 320 321 320 319 319 322 325 326 326 324 324 323 325 324 314 313 318 317 317 316 311 309 310 309 306 305 304 303 301 300
315 316 317 318 317 317 318 321 320 319 319 318 315 315 315 316 318 319 319 318 318 319 320 320 322 322 323 324 324 324 324 324 324 323 323 324 321 322 327 329 325 321 321 323 322 320 323 325 326 328 328 324 320 320 320 317 316 319 321 319 318 318 319 321 321 323 324 324 324 324 325 323 316 315 317 317 316 316 311 309 309 309 307 305 304 303 301 300
315 315 317 317 316 317 319 321 320 319 318 316 315 315 314 314 316 318 319 318 318 319 319 320 321 322 323 324 325 325 324 323 324 324 323 323 323 321 323 325 325 322 324 326 322 319 323 326 326 326 328 328 327 325 323 320 317 318 320 318 317 318 319 320 321 321 322 323 324 323 323 323 321 319 318 317 316 314 312 310 309 308 307 305 304 303 301 300
315 315 316 317 316 316 318 320 320 319 317 316 316 315 313 314 314 316 318 319 318 319 319 321 322 322 323 324 324 325 325 322 324 326 324 323 325 322 317 318 322 322 321 322 321 323 325 326 324 325 326 326 326 326 323 321 319 318 319 318 318 318 318 319 320 321 323 324 323 322 321 323 323 321 320 319 316 315 314 311 310 309 307 305 304 303 301 300
314 316 317 317 316 315 315 317 319 320 318 317 317 315 314 314 315 316 317 318 319 319 319 321 322 321 322 323 323 324 323 321 323 325 324 324 326 320 313 313 317 318 317 316 319 324 325 324 323 324 324 324 324 324 322 320 320 319 319 318 317 317 318 319 320 321 322 324 323 322 321 322 321 321 322 320 316 314 313 311 310 308 306 305 304 303 302 301
311 314 315 315 317 318 315 315 317 319 319 318 317 317 316 315 316 318 318 317 319 320 320 321 322 321 321 321 322 323 323 322 323 323 323 324 324 319 316 315 314 315 316 315 317 322 324 322 323 323 323 323 322 322 322 322 320 319 318 318 317 317 317 318 319 319 321 322 322 322 323 323 320 320 322 319 315 313 312 310 309 308 306 305 305 303 302 301
310 311 311 312 315 317 316 315 316 317 317 318 318 318 317 317 316 317 318 317 318 319 320 322 321 321 321 320 321 322 322 322 322 322 321 321 322 321 320 320 315 313 315 315 316 319 321 321 322 321 322 323 321 321 322 321 320 319 319 318 316 316 316 317 318 318 318 320 320 320 322 321 320 321 320 316 313 311 309 309 309 309 307 305 304 303 302 301
308 309 309 310 311 312 313 316 316 315 314 315 316 317 317 318 317 317 317 318 318 318 319 320 320 320 320 320 320 321 321 321 321 321 320 319 319 320 321 323 320 314 312 314 316 316 317 320 320 319 321 322 320 320 320 321 321 321 320 319 317 316 315 315 316 317 318 319 317 319 321 319 320 323 321 316 314 311 310 311 310 308 305 304 303 303 302 301
306 305 307 309 309 309 311 315 316 316 315 314 314 315 315 315 316 317 317 317 317 318 318 319 320 319 319 319 320 320 319 318 319 320 320 318 319 320 319 322 322 317 313 313 316 316 316 317 317 318 320 321 320 320 320 319 319 319 319 320 318 317 316 315 315 316 317 318 318 319 319 317 321 325 322 317 315 313 311 310 307 306 305 304 304 303 302 301
304 303 304 307 308 308 310 312 313 314 315 315 315 315 314 313 315 316 317 316 316 317 317 318 318 319 319 319 319 319 320 320 319 320 320 320 320 320 320 319 320 319 315 313 314 315 316 316 317 318 320 320 319 320 320 318 319 320 320 319 319 318 317 316 315 315 315 316 318 318 318 319 323 323 319 317 316 315 313 309 306 305 305 303 303 304 302 302
Wind_Speed
2 2 2 2 2 3 2 1 1 1 0 0 0 1 2 3 2 2 2 2 2 3 3 4 5 5 6 7 9 10 10 9 5 2 1 1 3 4 5 5 5 5 5 6 8 9 9 7 4 6 5 2 2 1 3 2 2 5 3 4 2 0 1 1 1 3 4 5 4 2 3 6 4 1 0 3 9 6 6 6 4 7 7 7 9 10 8 8
2 2 2 2 3 2 2 2 1 1 1 1 1 1 1 2 3 2 2 2 2 3 3 4 4 6 7 7 9 10 11 8 2 3 1 3 6 6 6 6 6 6 6 6 8 10 8 5 7 8 5 1 2 2 2 2 3 4 3 4 1 2 1 1 3 3 3 6 5 3 5 6 5 3 1 2 4 4 6 4 3 6 6 7 10 12 11 11
2 2 2 3 3 3 4 4 3 3 2 1 1 2 1 2 3 3 3 3 3 3 3 4 4 5 6 7 9 9 10 5 2 2 1 7 9 8 8 7 6 6 7 7 7 8 6 6 8 6 4 1 2 2 3 2 2 2 4 4 2 4 2 3 4 4 3 6 7 3 4 5 3 3 2 3 5 4 4 3 3 4 3 4 6 11 13 14
3 2 1 2 3 3 3 3 3 3 3 2 2 2 2 2 3 3 3 3 3 3 3 3 4 4 5 7 7 8 8 3 1 2 5 10 9 9 8 7 7 7 6 7 6 6 7 9 7 3 3 2 3 3 3 2 1 2 3 4 4 3 3 3 3 5 3 5 7 4 3 4 2 1 3 5 4 1 3 4 4 6 7 6 5 9 13 14
4 3 2 0 1 2 2 2 2 2 2 2 2 2 2 2 3 3 3 3 3 3 3 3 4 4 5 6 6 8 5 4 2 4 8 10 9 9 7 6 7 7 6 7 7 7 8 7 4 4 3 1 3 4 2 2 3 3 1 4 2 4 3 2 2 4 3 4 5 5 4 2 1 1 2 6 4 4 4 3 5 7 7 7 6 8 11 12
5 4 3 2 1 1 1 2 2 1 2 2 2 2 2 3 2 3 3 3 3 3 4 4 4 4 4 5 6 6 2 2 4 8 10 9 8 7 6 5 6 6 6 6 8 8 6 5 5 3 2 2 1 3 1 4 4 3 1 2 3 4 4 3 1 2 3 5 3 3 2 1 2 2 1 5 3 4 4 5 7 7 8 9 9 9 8 9
5 4 4 3 2 2 1 2 3 2 3 2 3 3 3 3 2 3 3 3 3 3 4 4 5 4 4 4 5 3 3 2 5 11 10 9 8 6 5 3 4 5 5 7 9 7 5 6 4 0 2 3 2 3 1 3 5 5 0 3 4 3 4 3 3 2 4 4 2 2 1 1 3 1 2 5 2 4 6 7 9 9 11 12 9 7 7 9
4 5 5 4 4 3 2 2 3 4 4 4 5 5 4 4 3 3 3 3 3 3 4 4 4 4 4 3 1 2 1 2 7 12 10 9 8 6 5 2 3 4 4 6 7 4 3 5 3 2 4 2 2 1 1 4 6 4 1 2 2 1 2 5 5 3 2 2 2 3 1 3 4 3 1 4 5 5 7 8 8 9 10 9 7 6 7 9
5 6 5 4 4 4 3 2 2 3 4 5 6 6 5 4 4 4 3 3 3 3 4 3 4 3 4 3 3 2 2 4 9 12 10 9 7 5 4 2 3 2 3 3 4 4 2 2 2 2 3 0 2 2 2 5 2 1 1 1 2 2 2 4 4 4 3 2 1 2 3 6 4 3 1 4 8 6 7 7 6 7 7 6 6 6 8 8
8 8 7 6 5 4 4 3 2 3 4 5 6 7 7 5 5 4 4 4 3 3 3 3 3 1 2 2 5 2 2 5 9 11 9 8 6 5 4 3 3 2 2 2 3 5 2 1 1 1 3 1 2 1 2 4 2 2 2 2 2 4 5 3 5 6 4 2 3 4 4 5 3 2 3 4 7 7 8 7 5 7 6 6 5 6 8 8
7 7 8 8 7 6 5 4 4 4 5 5 7 9 8 6 5 5 4 4 3 3 3 3 2 1 1 3 4 3 4 6 8 9 8 7 7 7 6 5 4 3 1 2 3 4 3 3 3 1 2 1 1 2 2 2 2 1 4 4 6 5 6 4 6 6 4 2 5 7 3 3 3 2 5 7 9 7 9 8 6 7 6 6 6 5 8 9
7 6 7 8 8 8 7 6 5 5 6 5 7 9 8 7 6 5 4 3 3 3 3 2 1 2 0 3 2 4 5 7 8 9 8 8 8 7 5 4 4 4 1 3 3 3 3 4 6 4 0 1 2 3 1 1 2 2 4 2 7 6 5 6 7 6 6 3 5 7 2 4 3 5 4 9 10 7 8 8 7 7 6 6 6 5 6 8
8 8 8 9 9 9 8 6 5 6 8 6 7 8 7 7 5 4 3 3 3 3 3 2 1 1 2 0 3 6 7 8 8 8 8 8 7 7 5 4 4 3 2 3 3 2 2 2 6 4 1 3 1 0 1 0 2 1 2 1 3 6 5 7 5 6 7 3 6 7 2 6 7 5 4 8 10 9 8 7 7 6 6 6 5 5 5 8
9 9 9 10 9 8 7 6 5 7 7 7 8 8 7 5 4 3 2 3 3 3 2 2 3 2 2 1 3 6 9 8 8 9 9 8 8 7 5 5 4 3 2 3 3 2 2 1 5 4 1 3 2 0 2 3 2 1 1 1 1 2 5 7 1 8 7 1 5 7 2 6 7 4 6 7 9 10 9 7 7 6 6 6 5 5 4 6
10 9 10 10 9 7 6 7 6 7 6 6 8 7 6 3 3 3 2 3 3 3 2 3 4 3 2 3 3 5 8 7 9 10 9 9 8 7 6 7 5 4 2 2 2 2 2 2 4 3 1 2 3 3 3 3 2 1 1 3 2 2 5 7 1 8 7 1 4 6 2 7 7 5 7 6 7 8 8 8 7 7 7 6 5 6 5 5
11 10 10 10 9 7 6 9 7 6 3 6 6 5 3 2 2 3 3 3 3 4 3 1 3 4 2 2 1 4 6 6 8 10 11 10 7 7 9 9 6 5 3 3 4 3 3 4 3 2 1 2 4 5 3 4 4 2 2 3 3 2 3 4 2 5 7 4 2 4 3 4 5 5 7 7 8 8 7 8 8 8 8 7 6 5 5 5
13 12 10 10 9 7 6 9 8 3 2 5 4 3 1 1 2 3 3 4 5 4 3 2 2 2 0 1 2 3 5 7 9 12 12 9 7 10 12 7 5 6 5 5 4 2 3 3 1 0 2 2 2 5 4 2 3 4 1 3 4 3 2 2 4 4 5 6 5 6 4 5 5 4 8 8 9 8 8 10 10 9 8 7 6 6 6 6
15 13 11 10 9 7 7 9 6 2 2 3 3 2 2 2 2 3 4 5 5 4 1 0 2 1 3 3 4 3 5 10 12 13 13 10 11 12 9 5 5 7 6 4 2 2 2 2 2 1 2 1 1 5 3 4 4 3 3 2 4 3 3 3 4 3 6 5 5 5 6 10 8 5 7 8 9 9 9 9 8 8 8 7 7 7 7 7
16 14 12 10 9 8 8 9 6 2 1 1 1 1 2 3 1 1 3 4 4 3 1 3 4 3 3 4 4 5 8 12 12 11 12 12 12 9 5 6 7 6 4 1 2 1 2 3 4 2 1 4 5 6 7 8 7 6 5 4 4 4 4 4 4 4 7 5 5 7 7 10 10 7 8 8 8 9 9 6 6 7 7 7 7 6 7 7
15 14 13 11 10 8 9 9 8 4 2 1 2 2 2 2 1 1 1 2 5 4 1 4 7 3 1 2 5 9 11 9 6 6 11 12 12 8 4 4 5 3 2 4 2 1 3 3 2 4 7 8 8 8 9 8 6 5 4 3 4 4 5 4 3 4 5 4 6 9 8 9 8 9 10 9 8 9 9 7 7 8 7 8 8 7 7 7
16 15 14 13 11 9 9 9 9 5 2 2 2 1 1 2 2 1 2 4 10 12 7 5 9 4 0 6 11 13 8 3 2 3 12 13 11 9 2 2 5 0 3 4 2 1 3 4 7 9 10 9 8 8 9 8 7 6 5 5 5 4 5 5 3 3 1 2 6 5 6 9 8 8 8 7 8 11 13 11 10 11 10 8 8 8 7 6
17 16 15 14 12 10 9 8 9 6 4 3 3 3 3 2 1 1 1 2 9 14 14 9 7 6 2 7 15 13 4 2 1 2 11 12 8 6 3 4 5 4 3 4 3 0 2 5 10 11 8 6 6 7 7 8 7 7 5 4 5 4 4 4 3 2 1 2 4 5 5 8 9 8 7 9 11 12 13 14 12 12 11 9 10 9 8 7
19 17 16 15 13 11 9 10 10 7 6 6 5 5 3 3 1 1 2 1 6 8 9 8 7 7 4 4 11 11 3 4 4 5 12 11 5 5 5 6 6 5 4 5 5 5 4 6 10 10 6 6 8 7 6 6 5 6 5 4 4 4 2 3 4 3 2 1 2 4 5 7 8 8 8 10 9 5 6 9 8 9 11 10 10 10 10 10
20 19 17 16 14 11 9 10 11 8 10 10 11 9 2 2 2 1 1 1 4 5 6 12 9 7 9 8 12 12 3 4 6 6 15 13 5 4 5 7 7 5 5 8 10 8 8 7 6 8 8 8 8 7 7 6 4 4 5 6 4 4 5 5 3 2 3 4 2 3 6 6 6 9 10 5 0 0 2 5 6 7 8 8 9 9 10 10
22 20 19 17 14 11 11 11 11 12 12 10 14 13 6 4 4 0 1 1 4 5 4 10 6 5 12 12 13 11 2 5 5 9 18 17 9 5 3 4 5 6 8 9 9 8 10 7 3 6 8 9 8 7 7 7 5 5 5 7 7 7 6 5 1 3 4 5 3 1 2 7 3 6 9 1 2 4 3 5 9 7 7 8 9 9 9 8
24 22 20 19 15 14 13 8 11 15 11 11 14 11 9 7 4 2 1 2 4 3 1 5 5 8 12 10 10 6 0 5 5 14 22 21 13 5 3 4 2 6 9 6 5 5 5 7 6 6 7 8 8 7 7 8 6 4 5 7 8 8 7 6 3 1 2 4 3 3 2 7 6 5 9 4 5 8 6 7 9 7 7 9 9 8 9 9
26 23 23 21 18 21 15 6 12 15 8 10 12 12 12 10 6 4 2 3 5 3 4 2 2 7 10 10 12 8 2 4 4 10 15 16 11 1 3 7 3 5 5 3 4 3 5 9 9 8 7 8 7 6 7 8 7 4 5 5 7 8 7 7 4 3 4 3 4 1 3 5 8 7 8 7 8 8 9 10 10 8 8 8 8 8 9 10
29 26 26 23 23 27 18 8 15 16 7 5 9 14 13 11 8 2 3 1 4 3 4 1 0 3 5 9 13 8 2 2 6 3 1 6 7 1 3 8 7 8 6 6 6 4 4 9 10 11 8 7 6 5 7 9 6 5 4 5 6 6 5 3 4 1 1 2 3 2 3 3 9 6 1 3 7 8 11 14 14 12 10 8 9 9 9 9
33 30 29 26 25 28 19 10 15 16 12 6 7 13 12 9 6 3 3 3 2 2 1 1 2 1 4 7 9 5 2 3 3 3 2 3 2 2 3 5 5 7 6 7 8 2 2 6 8 10 8 7 4 1 4 9 6 4 3 6 6 4 4 5 4 3 3 2 4 5 4 3 9 5 3 2 4 9 12 13 13 12 11 10 10 9 9 8
36 34 32 28 26 30 23 14 15 15 14 10 7 11 10 5 3 4 3 4 0 1 1 1 2 3 8 9 5 2 4 2 1 1 2 1 2 4 1 1 4 4 3 5 5 2 1 1 1 3 4 5 5 3 1 5 7 6 6 7 7 6 5 4 3 5 2 5 6 9 10 6 7 4 5 4 5 8 9 8 6 9 11 12 11 10 9 8
38 36 34 33 31 33 23 16 18 17 15 15 13 14 9 2 2 4 6 1 1 1 2 1 2 5 11 12 6 3 3 1 1 4 3 1 1 3 1 1 3 2 2 5 5 4 3 1 1 1 1 4 6 4 4 1 5 7 5 5 4 3 4 4 4 4 1 7 5 11 12 10 8 6 3 5 6 5 7 7 8 10 12 12 11 10 11 9
40 37 37 36 35 35 26 20 24 22 18 20 18 13 6 1 2 5 4 1 0 3 4 3 3 6 10 10 8 8 6 2 3 7 7 5 5 6 6 6 6 2 4 6 3 3 3 4 3 1 0 4 7 4 4 5 2 4 5 6 3 1 2 2 2 1 4 6 3 7 8 7 10 7 5 8 9 6 6 7 8 11 12 12 11 11 11 10
40 39 39 39 37 38 32 24 26 26 24 25 18 6 3 3 6 7 6 3 2 2 4 4 5 8 11 8 6 7 5 3 6 7 6 6 6 8 7 5 6 4 3 6 5 2 3 5 1 1 3 3 8 7 3 1 3 6 7 7 5 3 1 3 3 2 5 5 4 3 5 4 6 4 8 12 9 5 5 6 7 11 13 13 12 11 10 10
40 39 40 42 41 40 34 25 26 30 29 25 13 5 5 5 5 7 9 7 1 1 2 4 6 8 10 8 5 7 5 2 6 6 3 5 4 6 5 6 8 3 3 3 3 5 5 6 5 8 3 6 11 10 7 6 5 6 6 6 6 6 4 4 4 4 4 4 4 1 3 4 2 2 7 8 5 4 4 4 3 7 9 10 9 9 9 10
34 40 40 40 41 41 36 28 29 33 28 17 7 6 8 7 4 6 8 8 3 1 1 4 8 7 7 5 3 7 6 1 5 6 4 6 6 6 7 7 10 6 4 4 2 4 7 7 6 7 3 10 13 7 6 7 3 4 2 4 4 6 5 3 3 5 3 2 3 3 4 4 4 4 4 2 4 4 4 2 5 6 7 9 9 9 10 10
23 34 36 34 37 39 37 32 34 37 26 11 6 7 8 8 6 5 6 8 8 5 5 4 4 5 6 3 2 6 3 3 5 5 3 5 5 6 7 5 10 11 8 7 2 3 4 5 4 1 1 6 9 4 4 5 4 2 2 4 4 4 5 3 3 1 2 3 4 3 5 5 3 6 3 2 2 3 2 1 6 6 8 10 9 10 10 10
14 21 24 28 34 37 37 36 39 37 20 8 9 8 8 8 6 5 6 8 10 9 8 4 4 6 7 5 4 7 3 2 5 5 3 3 4 7 9 4 8 15 14 8 3 3 5 3 3 2 2 3 1 3 2 1 3 5 4 6 2 2 1 2 2 3 1 4 4 4 7 5 2 5 2 3 3 5 5 5 6 6 8 10 10 10 11 11
11 11 12 24 34 35 38 41 41 29 11 6 10 9 7 6 5 4 5 7 10 10 8 7 6 6 7 7 6 7 7 4 6 6 3 3 5 7 11 7 7 15 17 9 3 3 3 3 4 1 2 3 3 3 0 4 3 5 4 5 4 1 1 3 2 3 2 4 5 3 5 6 7 6 3 5 9 9 9 8 7 9 11 11 10 11 11 11
10 5 5 19 32 35 40 43 33 16 6 7 10 9 6 5 4 2 3 7 9 10 9 8 6 5 7 8 6 7 9 7 8 7 4 5 5 5 11 9 6 12 16 12 7 4 2 3 3 2 0 1 2 2 4 1 1 3 1 2 2 2 3 4 3 3 3 3 5 3 3 5 7 7 8 11 13 13 12 10 11 13 14 12 10 11 11 12
7 3 2 12 26 37 44 37 18 7 7 8 9 7 5 4 4 4 5 4 5 6 8 8 7 6 6 7 7 7 8 7 9 7 5 6 5 4 8 9 7 9 14 15 11 4 2 3 3 2 3 1 2 3 8 9 6 3 3 4 3 2 2 1 1 2 3 2 3 3 7 8 4 4 10 13 14 14 14 13 13 13 13 11 10 11 12 12
3 4 3 10 26 39 37 20 7 7 8 8 9 7 4 3 4 6 7 1 1 1 2 4 6 7 6 7 7 7 7 6 8 7 5 6 6 4 5 9 9 9 10 12 10 6 4 3 3 2 1 4 5 5 7 9 7 6 6 7 8 6 4 2 4 3 4 3 4 3 9 11 3 2 5 9 11 12 13 14 13 12 13 12 11 12 12 12
3 6 3 15 33 38 24 7 5 7 6 8 7 4 2 3 3 5 7 3 1 2 2 0 3 5 5 5 5 6 7 6 8 8 6 8 9 6 5 8 10 11 10 9 9 7 4 3 3 3 3 5 6 3 1 2 3 3 1 3 5 5 6 6 7 5 4 4 3 3 6 9 2 1 2 4 6 8 10 13 11 10 12 12 11 11 11 11
5 6 3 20 40 34 13 6 8 6 5 6 4 1 2 2 3 5 6 6 4 2 2 2 3 5 5 4 4 5 7 6 8 10 7 7 9 5 3 4 8 10 8 6 5 3 3 3 4 3 2 1 2 4 5 4 4 2 2 4 6 7 8 6 5 3 4 6 4 3 6 9 2 1 2 2 5 5 7 11 10 9 8 10 11 11 11 10
3 4 1 19 40 31 8 5 9 7 7 6 5 5 4 2 3 7 9 11 9 5 4 3 3 4 4 4 4 6 8 6 7 10 7 5 6 1 3 1 5 9 7 4 5 5 4 3 4 2 1 2 2 2 3 2 2 3 5 6 7 7 6 3 1 1 4 9 8 6 9 9 1 3 3 4 5 3 5 8 8 8 8 9 10 10 10 11
3 3 2 10 25 21 7 6 8 7 9 10 8 10 9 5 5 8 8 9 9 6 4 4 4 4 2 2 1 2 7 7 5 6 6 5 3 1 4 3 2 6 4 2 3 7 5 4 6 6 6 8 6 4 3 3 4 3 4 6 8 10 11 8 3 4 9 9 8 8 13 8 3 5 5 5 4 3 4 5 6 7 8 9 10 10 11 11
3 3 2 3 7 7 5 6 8 7 8 11 9 9 11 8 6 8 7 7 9 9 7 4 4 4 2 3 3 3 7 5 1 2 4 5 3 1 2 3 2 2 1 4 4 5 3 3 8 11 11 12 9 3 4 6 6 6 8 10 12 13 14 10 6 9 9 2 4 12 14 11 9 5 4 7 5 5 5 5 7 8 8 9 10 10 10 11
3 3 5 4 3 5 5 4 7 8 9 11 7 7 13 13 8 6 7 8 9 11 9 5 5 7 7 8 8 7 7 3 1 2 4 4 3 2 1 2 3 2 3 3 3 3 3 4 10 14 13 14 13 6 6 8 9 11 12 13 14 14 14 13 13 15 7 4 10 15 8 11 18 9 7 10 7 6 7 8 9 9 8 9 9 10 11 12
2 3 3 1 2 5 7 7 8 8 10 12 8 7 13 16 12 8 8 9 8 9 8 4 7 13 14 14 10 7 8 6 4 6 5 5 3 0 1 1 1 3 4 3 2 3 4 5 8 10 12 15 16 11 7 8 7 9 11 14 16 16 17 19 20 19 10 7 17 13 8 15 20 9 10 12 9 11 11 9 6 6 8 9 10 12 13 14
1 2 3 2 1 3 5 7 10 10 11 11 8 9 13 16 17 13 8 7 7 8 10 9 12 16 15 13 10 8 9 9 9 11 10 6 5 3 1 1 1 3 4 2 1 2 3 4 3 6 9 15 17 13 7 7 5 6 9 13 15 18 22 21 20 20 16 15 21 16 11 17 15 7 10 10 7 8 5 2 3 6 9 10 12 13 13 14
1 1 2 2 1 3 5 3 7 8 9 7 6 7 9 14 19 15 9 9 9 10 12 14 17 17 14 13 11 11 14 15 15 14 10 8 6 4 5 5 2 1 2 2 1 1 2 2 2 3 4 13 16 11 7 7 8 8 9 11 14 16 15 15 15 17 15 17 22 19 15 17 9 5 5 3 2 3 3 5 7 7 8 10 11 12 13 14
3 0 0 1 2 3 4 2 4 6 6 6 6 5 6 10 14 12 9 10 12 11 13 19 21 15 11 11 13 17 19 16 14 9 8 11 10 6 6 5 6 5 3 3 2 1 3 1 2 3 3 11 12 8 9 9 7 9 14 19 21 13 8 10 14 14 14 16 20 16 15 16 7 6 3 1 5 6 6 8 7 5 6 9 11 12 12 13
4 1 2 1 3 3 2 2 2 4 4 5 8 8 7 9 11 10 6 6 9 9 10 16 18 10 6 12 17 19 16 9 6 4 5 6 5 4 5 5 7 8 6 5 3 2 5 4 2 4 5 9 6 5 6 5 4 8 15 20 19 13 10 12 13 14 16 15 14 13 14 12 5 6 5 4 6 8 8 7 6 6 6 7 8 10 10 10
Wind_Direction
133 132 127 86 41 15 340 312 37 18 16 317 145 153 170 173 191 197 217 237 259 283 294 303 309 316 321 325 325 327 335 340 344 20 135 144 102 111 100 86 81 63 41 23 16 9 4 8 331 349 4 337 25 6 356 9 46 55 74 81 65 67 47 279 158 168 150 144 182 176 100 124 152 306 1 51 62 81 64 56 53 56 71 90 104 102 90 93
95 90 101 73 36 14 348 327 345 3 330 315 298 236 202 191 211 207 215 231 248 266 278 293 305 311 316 323 322 330 337 336 16 59 89 151 127 114 104 90 77 56 36 34 27 15 12 356 333 359 30 7 343 12 15 347 55 72 103 82 124 181 41 307 132 111 121 148 166 118 97 123 161 172 79 79 103 111 85 65 75 74 71 80 91 94 90 88
112 72 63 47 21 17 12 356 356 354 342 317 290 273 245 221 222 215 217 222 232 247 263 279 293 304 310 316 319 332 335 342 91 29 96 136 131 119 104 90 72 47 34 42 27 6 356 317 316 352 47 23 308 50 46 357 46 85 101 78 237 191 68 12 78 83 110 141 134 105 93 109 175 162 108 133 119 118 134 155 148 125 129 112 92 92 91 84
146 111 75 28 13 13 14 13 11 356 344 320 294 285 266 249 231 225 221 219 227 238 248 265 281 291 300 307 316 328 337 31 92 273 143 136 133 124 109 90 66 41 33 36 17 350 337 319 318 6 59 12 318 45 54 343 41 55 96 134 219 160 85 352 63 74 68 109 125 140 95 89 210 143 128 150 113 63 215 210 178 158 154 142 116 95 92 86
177 167 161 226 337 4 7 10 14 6 349 332 318 306 288 279 265 247 233 232 235 241 250 263 275 280 293 301 313 324 353 67 214 196 146 144 141 132 116 88 61 36 31 26 -0 341 328 325 2 39 58 32 340 34 7 296 87 62 62 150 178 95 113 249 82 62 44 76 94 110 102 126 195 32 145 153 163 221 205 181 141 137 143 139 127 105 93 88
206 193 182 218 247 309 335 346 345 352 346 332 314 303 292 286 288 277 262 262 258 260 268 268 275 282 289 296 310 320 57 112 211 172 155 154 144 139 123 89 56 33 28 15 356 351 339 349 28 28 55 66 56 91 283 305 81 96 323 51 36 72 135 202 109 52 63 77 72 116 152 143 80 317 180 128 174 191 145 131 121 118 126 121 113 106 96 93
220 221 214 228 243 273 317 335 332 332 329 319 301 291 284 284 288 282 278 283 275 276 281 279 287 291 297 302 314 343 117 177 199 169 168 160 148 142 127 92 52 41 28 16 8 7 9 21 21 347 72 57 98 118 278 340 58 94 16 356 10 69 124 149 150 127 87 104 165 113 84 118 122 242 78 93 146 139 118 118 120 118 114 109 103 101 99 98
220 230 229 236 241 249 265 304 327 331 324 315 302 290 283 280 275 274 274 278 272 274 278 282 292 300 318 316 341 29 45 206 177 170 173 161 155 150 138 109 66 55 33 20 9 4 15 27 17 53 61 45 103 84 20 28 33 72 86 311 342 13 142 145 139 134 107 173 194 76 41 234 193 195 120 146 164 136 127 124 121 116 105 103 105 105 99 92
248 247 240 238 240 249 244 260 304 312 318 313 301 292 281 271 266 268 269 268 258 258 266 274 286 301 326 335 86 62 287 185 165 170 169 160 161 159 155 124 101 70 32 6 1 15 28 48 14 57 97 214 85 73 45 62 24 180 123 337 351 305 241 151 146 175 190 224 164 84 272 265 239 205 232 176 167 151 133 132 130 116 106 107 108 109 105 92
276 278 270 256 248 258 255 256 285 297 308 311 311 303 285 267 259 258 259 261 251 249 258 260 276 297 327 9 76 104 211 158 162 171 169 165 164 162 166 153 141 117 14 330 30 45 81 104 329 143 132 26 49 87 75 96 176 200 91 4 303 274 273 179 189 205 189 229 189 164 244 281 298 206 231 189 166 156 136 146 144 122 124 123 109 104 107 98
286 294 290 276 261 259 262 261 273 293 296 312 322 314 295 273 255 251 252 250 242 242 252 256 272 278 301 68 98 179 187 160 163 163 166 169 168 172 173 172 167 154 24 7 56 61 67 23 3 54 98 41 41 50 39 109 149 116 72 352 302 291 293 227 213 214 167 234 186 159 230 296 6 259 222 175 162 160 146 157 152 132 138 130 119 108 105 101
278 290 296 292 275 261 260 262 271 288 291 309 321 315 306 283 258 248 243 232 228 230 241 246 265 266 18 72 152 197 184 175 164 154 165 170 171 177 169 171 168 155 115 67 78 62 44 12 41 64 110 122 83 50 25 229 116 86 79 350 302 335 314 238 219 197 157 194 169 132 334 298 236 237 199 154 157 158 149 159 156 146 148 137 131 120 114 111
264 276 287 295 291 275 264 262 269 282 286 306 319 315 310 289 270 255 236 212 209 214 230 225 221 199 109 81 230 199 189 178 162 158 166 171 173 171 164 171 164 157 133 96 108 73 57 26 66 87 166 102 110 170 129 86 88 31 60 122 306 356 317 251 218 172 153 174 150 125 318 276 249 233 158 150 157 150 152 170 164 154 155 149 143 133 130 122
259 265 275 287 293 287 270 254 266 280 286 309 320 314 308 295 275 254 221 198 197 207 214 184 176 143 109 249 244 198 192 175 168 172 167 169 162 149 149 154 151 157 155 115 101 67 84 58 64 74 35 91 141 171 36 18 63 7 5 49 3 11 288 291 220 156 158 198 126 116 209 260 274 249 172 170 165 156 163 179 171 164 165 158 153 142 138 126
261 261 268 278 285 287 260 235 255 272 282 315 321 319 315 290 244 220 183 180 190 191 185 180 179 130 61 289 265 188 186 179 182 177 167 168 156 138 137 139 136 131 134 118 106 102 109 72 63 78 338 12 72 70 22 356 7 57 54 322 328 168 264 311 18 158 161 205 120 121 196 265 272 224 187 187 176 167 169 180 177 172 171 165 162 149 141 129
261 260 262 269 277 287 257 228 235 245 275 323 325 330 324 257 202 174 156 156 167 162 127 116 176 133 73 272 203 167 190 198 186 173 167 171 166 143 133 128 115 108 113 106 111 126 93 62 60 106 103 40 74 86 46 11 342 345 132 249 259 181 267 317 300 198 156 131 174 184 202 265 266 198 187 194 189 180 174 187 186 179 178 170 164 155 150 141
256 257 257 263 270 294 270 229 223 225 296 327 331 347 352 157 154 157 148 136 143 145 113 81 147 137 50 175 160 199 197 184 175 172 171 168 165 147 132 120 112 112 102 87 96 104 60 54 89 119 68 71 115 97 63 10 302 310 166 233 249 204 226 283 285 254 151 139 197 221 227 248 260 195 189 198 190 188 191 194 190 182 179 175 167 158 160 154
252 252 251 258 266 293 278 234 218 218 291 326 351 12 59 103 119 135 140 141 123 94 68 0 127 161 266 206 179 194 166 165 166 169 170 155 149 149 134 123 129 113 86 55 37 77 39 25 81 78 29 4 186 116 127 216 208 212 190 212 261 248 224 222 255 234 160 163 198 205 237 252 260 233 207 208 192 199 210 199 191 183 174 176 171 164 169 158
247 248 245 250 259 280 271 229 206 199 233 332 14 57 66 58 59 128 143 151 132 111 189 219 167 150 241 211 156 112 127 149 155 164 169 153 149 156 137 127 125 105 93 63 328 120 113 46 61 103 199 221 208 174 188 204 183 182 183 172 200 237 262 233 244 224 166 171 222 208 224 244 248 242 224 215 199 207 220 202 185 187 177 176 175 173 169 155
242 241 240 243 247 265 262 226 197 186 205 284 0 45 85 67 47 278 237 204 219 218 202 194 192 175 85 139 122 116 122 132 137 171 174 161 152 148 119 104 97 65 112 153 206 205 124 120 162 192 207 210 206 200 204 207 197 205 221 223 207 213 264 264 255 253 158 158 238 223 226 245 244 240 228 209 196 209 221 212 197 191 186 181 179 176 162 152
235 234 236 238 239 251 254 226 190 179 207 243 325 5 163 151 138 210 232 245 252 252 267 229 208 235 73 147 152 141 126 102 54 170 174 167 149 142 148 103 107 180 218 158 151 355 124 172 218 217 213 207 202 206 214 221 227 238 240 250 256 228 248 261 243 265 125 171 257 251 246 258 253 243 231 188 183 211 212 207 203 194 191 185 177 171 155 146
232 231 230 233 234 238 246 226 188 181 211 228 261 266 273 279 163 130 157 274 268 244 246 250 236 263 265 163 170 159 113 94 111 197 177 165 150 158 177 124 136 204 208 120 87 125 185 226 234 225 213 203 216 220 216 221 223 233 235 226 251 250 260 294 309 326 18 182 259 291 281 266 261 252 231 193 197 215 211 207 205 193 189 186 176 167 153 151
231 228 225 227 225 227 237 221 190 188 215 219 228 226 274 302 221 79 123 298 291 240 225 233 230 231 218 182 183 175 148 150 162 223 187 162 155 179 154 144 173 188 162 150 157 172 205 243 235 218 200 199 227 241 232 233 226 218 213 196 235 250 231 275 297 299 302 219 250 305 304 271 268 267 242 216 209 214 210 212 209 192 190 185 176 167 159 162
228 224 224 220 215 217 221 204 191 208 223 226 231 214 187 307 250 72 96 271 283 261 215 207 207 205 200 197 185 178 193 187 162 193 189 168 143 163 158 164 176 170 187 194 186 194 215 230 214 188 193 203 216 239 231 226 244 232 199 184 205 221 210 228 266 312 340 336 303 326 316 276 254 254 252 247 196 140 175 189 197 196 189 173 166 168 167 167
223 220 220 214 209 204 192 186 200 217 218 231 237 211 176 253 268 279 63 340 273 283 249 204 200 204 195 184 177 171 186 226 186 173 183 176 155 146 180 177 163 185 206 199 195 223 232 226 169 160 195 208 208 226 214 192 220 258 225 198 199 205 216 217 141 52 2 321 287 111 308 281 270 250 255 281 134 212 203 193 202 193 176 170 169 173 170 167
222 219 216 210 202 185 175 188 212 209 209 234 233 198 178 213 253 251 116 10 277 261 163 185 187 189 183 167 159 139 107 243 189 163 175 182 176 141 165 183 151 199 198 185 201 239 217 196 188 179 189 201 209 226 217 183 181 245 241 202 200 209 218 214 186 121 258 264 275 116 163 274 291 259 248 218 189 218 220 216 214 195 184 183 176 172 168 166
221 218 213 208 193 178 175 192 195 185 198 240 218 181 186 202 225 261 73 16 282 194 139 197 198 171 170 165 154 132 222 230 131 156 173 184 193 102 163 188 170 195 175 144 235 256 161 172 194 194 183 194 207 220 217 175 156 234 247 175 180 202 212 212 193 201 225 257 317 48 123 277 280 256 238 208 199 230 234 228 225 206 198 189 175 174 171 170
223 217 211 207 194 185 181 164 173 180 195 222 180 173 189 202 216 251 89 235 271 126 127 248 142 141 143 161 160 145 229 160 117 189 180 164 195 13 204 200 179 188 173 158 218 275 153 171 186 186 188 202 202 205 192 158 154 241 227 130 136 167 169 140 124 147 315 350 308 262 116 277 271 262 258 188 201 235 240 230 225 209 197 187 182 181 173 170
225 219 211 205 197 193 191 170 175 195 204 175 152 174 182 190 196 60 91 215 262 87 116 126 123 135 117 151 173 151 44 46 128 236 11 110 172 44 198 207 160 180 203 202 211 244 174 189 181 173 188 205 189 159 171 162 179 216 133 88 67 70 75 76 94 90 32 322 237 206 162 237 270 250 120 108 217 233 238 234 225 204 193 191 185 181 173 167
224 220 213 203 197 198 201 210 204 197 196 185 156 157 157 159 124 86 179 212 44 81 77 112 158 163 146 153 180 136 77 32 44 99 56 96 20 23 203 193 90 145 231 262 239 232 266 271 183 169 185 179 138 83 77 175 170 135 89 62 45 28 33 44 53 80 53 276 221 188 181 191 274 269 156 180 220 216 225 236 220 187 187 193 186 181 176 167
222 218 212 203 199 195 194 217 208 184 186 187 153 135 135 94 80 163 198 201 21 170 124 153 176 143 153 158 169 159 114 47 156 141 142 143 56 36 33 75 75 86 280 279 284 314 338 334 271 238 154 111 98 76 9 28 135 115 89 86 70 356 14 22 4 61 188 259 210 187 187 185 232 264 194 229 258 230 213 218 207 189 188 191 184 180 177 169
220 218 213 207 204 195 195 207 192 176 183 177 151 133 134 141 224 212 205 79 310 199 159 176 185 158 163 167 179 175 151 159 184 167 168 167 176 187 192 190 168 165 248 233 250 320 290 233 217 336 310 127 113 99 15 1 68 109 110 116 126 290 6 3 318 130 223 260 241 189 181 199 236 250 243 255 265 245 222 226 208 188 185 186 180 178 176 171
222 217 213 210 205 199 202 202 182 174 176 165 149 131 143 181 211 209 203 193 201 196 153 144 163 165 164 171 192 176 158 183 179 175 178 163 186 211 220 227 195 183 203 190 189 203 267 289 228 141 294 187 156 161 175 238 193 163 144 144 164 173 180 245 242 251 251 269 282 184 162 232 273 266 242 246 252 246 256 264 220 183 182 182 177 173 169 170
226 217 212 210 206 204 203 194 181 175 166 156 146 148 177 203 209 187 206 225 223 114 144 134 144 160 172 183 188 167 166 211 168 158 157 151 182 220 230 248 227 202 89 148 186 182 216 282 202 180 211 188 185 190 171 143 165 185 158 145 168 166 172 210 206 223 250 275 289 229 161 202 217 253 250 250 269 299 313 286 194 165 170 166 160 161 162 170
226 215 211 208 206 206 200 189 184 174 161 152 153 168 186 207 202 183 206 217 202 110 84 126 132 152 196 216 200 176 170 188 169 154 161 178 192 204 203 217 209 182 123 182 225 161 203 260 224 194 179 172 187 195 134 116 154 217 135 121 185 185 179 220 211 183 180 285 280 215 217 221 207 251 264 283 307 334 8 51 133 143 150 146 155 165 168 173
221 212 209 206 205 203 195 188 183 172 161 155 167 185 203 207 192 181 190 191 186 152 112 120 125 153 202 223 230 206 171 106 160 168 197 204 214 208 200 206 195 188 184 188 193 149 187 279 272 189 76 175 186 172 141 160 185 177 144 181 203 174 164 214 278 61 101 264 261 195 242 286 304 267 236 130 299 317 4 149 159 164 159 157 172 175 174 177
220 214 208 209 209 200 192 189 180 172 166 168 183 195 209 210 192 175 178 177 174 154 141 170 183 171 186 200 213 202 172 109 163 179 193 196 236 215 201 211 189 194 203 195 201 194 169 256 287 132 168 241 183 107 66 345 135 132 181 205 163 68 99 145 256 344 41 259 266 206 235 258 248 264 264 128 230 252 243 214 180 175 174 177 185 180 178 176
220 219 216 219 212 198 192 187 177 171 172 182 198 207 202 204 201 180 173 165 163 164 175 200 193 173 179 191 201 184 175 177 173 184 186 188 241 210 188 202 193 197 206 198 215 251 164 215 288 83 180 288 23 108 50 351 87 131 187 196 133 131 222 136 177 238 203 250 278 255 250 241 209 220 218 198 215 222 224 213 194 192 191 191 188 179 177 172
217 219 241 224 211 200 192 185 175 172 180 184 207 216 198 193 198 207 202 178 171 175 192 206 188 179 189 182 175 174 183 184 168 176 191 190 232 207 176 189 202 197 197 187 199 231 163 203 260 347 298 321 30 151 182 214 45 63 87 185 137 141 180 165 173 190 173 232 275 298 298 252 214 193 188 200 210 208 206 202 203 204 198 193 185 176 177 178
213 229 258 208 204 198 189 184 179 184 188 194 211 205 176 167 180 236 247 191 166 186 200 201 183 183 195 180 169 173 187 188 172 182 206 192 214 236 185 180 186 189 187 188 196 189 150 218 221 325 331 197 186 198 184 182 182 159 154 182 189 146 127 183 213 155 140 192 245 276 282 264 229 179 189 197 206 206 200 197 205 207 199 193 184 180 182 182
192 244 236 180 189 186 180 182 198 194 192 207 219 211 186 148 157 224 247 230 53 280 201 179 186 187 182 180 182 176 177 188 183 190 215 203 206 237 207 184 176 169 169 184 200 192 186 203 171 174 245 208 226 238 204 191 181 176 185 190 188 174 148 190 247 205 155 200 197 200 270 267 230 166 204 199 207 209 199 198 205 203 195 191 186 184 185 182
194 235 205 168 177 174 168 194 211 190 206 208 211 213 173 177 165 193 224 229 297 308 342 44 200 196 188 185 182 167 166 185 193 193 210 214 206 210 224 200 173 159 157 178 203 196 154 120 161 203 213 209 237 272 207 147 118 111 177 187 175 181 178 187 226 217 174 225 214 131 273 272 222 130 252 227 237 227 202 199 204 201 193 187 184 183 182 181
216 225 159 166 174 169 163 220 198 198 229 198 194 197 148 207 180 159 191 208 202 201 229 255 185 189 212 197 170 169 172 185 202 201 209 218 211 213 253 213 167 160 167 177 192 176 117 135 188 232 315 343 321 352 17 40 74 88 224 187 177 203 204 191 210 189 169 220 205 142 254 262 263 336 295 304 294 257 208 202 199 196 188 179 182 179 175 176
222 229 184 176 177 171 168 219 194 208 223 198 199 205 206 261 193 176 188 194 197 188 192 221 191 186 217 198 176 179 179 191 215 210 205 208 214 247 13 266 182 174 182 195 186 175 170 170 161 163 279 319 351 348 342 2 145 200 226 198 191 205 205 217 259 138 224 226 186 177 244 248 295 345 339 359 341 296 224 211 196 186 180 177 180 176 173 173
184 216 297 194 183 178 191 211 193 202 208 209 212 199 203 231 215 212 205 187 196 195 189 221 201 176 189 180 143 170 191 208 226 220 214 207 216 5 24 354 225 186 212 300 176 167 166 168 160 170 207 225 225 215 212 192 170 213 226 192 197 200 195 211 226 210 237 227 167 197 241 252 338 349 332 333 324 282 241 212 193 190 183 177 176 174 173 171
183 199 207 213 204 204 219 207 196 197 193 202 214 197 198 212 213 216 213 196 197 196 201 216 173 159 159 164 180 208 214 223 190 191 209 201 215 318 8 11 39 158 334 31 100 137 138 179 188 192 207 221 228 209 146 143 153 197 210 196 202 206 198 201 218 222 227 195 184 224 237 261 280 279 280 278 255 246 248 204 193 199 187 179 176 173 172 173
208 209 181 174 220 230 240 231 208 203 188 186 190 184 196 209 212 197 201 209 199 194 207 208 168 181 189 188 203 213 209 200 100 178 194 184 217 286 320 66 46 3 6 46 79 108 120 196 204 202 214 229 241 236 147 148 177 199 203 201 206 208 200 200 217 223 194 120 244 237 207 247 259 240 230 249 235 235 242 217 209 203 183 176 168 165 171 174
229 240 217 195 220 213 223 225 210 205 196 187 179 177 191 204 208 193 193 211 207 194 199 199 197 206 202 196 201 208 205 204 212 223 210 179 176 214 3 32 14 359 30 40 358 89 141 216 216 205 223 238 247 246 188 173 198 201 201 208 207 203 203 207 218 224 195 189 245 242 174 227 251 238 222 230 212 215 223 215 205 176 163 168 166 170 178 177
234 276 287 327 303 229 238 221 201 203 206 193 189 197 194 198 205 202 187 190 202 200 197 203 213 214 211 203 197 202 207 204 214 226 219 197 170 153 180 238 307 6 50 84 7 94 166 229 209 191 228 244 248 246 204 187 214 215 210 216 212 208 209 210 217 226 217 219 243 246 224 239 250 223 224 233 211 213 211 155 157 162 168 175 172 178 183 181
180 251 284 339 315 282 301 252 179 193 210 196 197 213 204 201 204 203 188 176 185 196 198 210 219 215 208 204 200 214 216 208 217 223 205 196 201 184 197 203 165 45 64 126 78 354 204 228 87 124 230 254 252 243 215 209 224 237 240 234 226 219 215 216 224 228 224 229 242 246 249 256 247 179 216 265 107 131 130 162 192 187 180 179 177 185 188 187
192 229 134 34 319 253 274 281 158 183 209 196 199 210 210 215 208 200 196 191 191 193 193 208 220 217 204 200 206 223 227 220 223 220 181 189 204 195 203 197 151 140 157 154 142 160 185 207 43 104 210 254 251 227 220 226 227 247 256 246 235 221 204 218 227 224 218 226 238 242 247 255 239 143 144 106 121 149 182 197 200 190 184 182 184 192 194 193
188 7 94 153 274 227 225 287 204 194 200 190 199 197 194 211 208 197 205 205 205 210 201 208 219 215 195 206 214 226 231 221 210 197 165 179 183 163 182 181 156 159 166 160 151 156 165 173 173 159 211 259 252 178 187 208 211 238 248 244 234 215 207 224 232 230 223 220 229 233 237 243 214 143 167 177 162 181 200 202 194 182 182 188 196 200 200 201